星链-32607 (STARLINK-32607)

导读 | 豆包AI

STARLINK-32607是美国SpaceX公司星链(Starlink)星座的成员卫星,于2024年11月14日发射入轨。作为星链互联网卫星星座的一部分,它运行于近地轨道,主要为全球范围提供低成本、高覆盖的宽带互联网接入服务,属于SpaceX大规模低轨卫星互联网组网计划的组网卫星,进一步扩充了星链星座的在轨运营规模,提升星座网络的覆盖能力与服务稳定性。

基本信息
目录编号:
61977
目录名称:
STARLINK-32607
国际标识:
2024-210U
轨道中心:
EARTH
卫星名称:
星链-32607
卫星全名:
星链-32607 (STARLINK-32607)
卫星状态:
在轨 (已飞行486 天)
发射日期:
2024-11-14 UTC
国别 :
美国 (US)
星等 :
--
轨道信息
数据来源 国际轨道数据
星历时间: 2026-03-15T05:25:13+0800
12小时前
查看轨道信息
半长轴: 6861.151km
偏心率: 0.0001395
轨道倾角: 43.000°
近地点辐角 256.010°
升交点赤经 150.608°
平近点角 104.060°
近地点: 482.056km
远地点: 483.972km
周期: 94.266分钟
每日圈数: 15.275919
详细信息
固有亮度:
5
最大亮度:
2.5
卫星平台:
Starlink V1.0
覆盖范围:
全球
运营商:
太空探索技术公司
运营商所在国:
美国
制造商(研发单位):
太空探索技术公司
制造商所在国:
美国
使用方式:
暂无
卫星简介
Starlink 计划是 SpaceX 推出的全球卫星互联网项目,通过发射低轨道卫星,为全球尤其是偏远地区提供高速、低延迟的互联网服务。自 2019 年起,Starlink 已部署数千颗卫星,旨在缩小全球数字鸿沟,推动互联网普及。该项目还为军事、航空等行业提供通信支持,带来广泛经济效益。
2D轨道图
3D轨道图
轨道高度分析图
轨道倾角分析图
轨道综合分析图
查看轨道综合分析图